Location: Kailua
(21.4020°N, 157.7390°W)
Time: 17:48:22
(UTC-10:00)

Daily predictions for brighter satellites

Satellite Brightness Start Highest point End
(mag) Time Altitude Azimuth Time Altitude Azimuth Time Altitude Azimuth
Sakura Rocket 3.3 19:34:45 10° WSW 19:40:40 83° SSE 19:45:00 10° ENE
Helios 1A 3.5 19:37:22 10° S 19:41:33 64° WSW 19:45:44 10° NNW
Cosmos 1777 Rocket 4.5 19:42:41 10° SSW 19:47:55 68° WNW 19:53:09 10° N
NOSS 3-1 (C) 3.3 19:43:09 10° SSW 19:48:45 65° ESE 19:54:40 10° NNE
OTV 4 3.3 19:48:03 10° WNW 19:50:14 19° NNW 19:52:27 10° NNE
GPS 2-12 Rocket1 3.1 19:47:22 10° W 19:51:46 65° S 19:56:05 11° ESE
NATO 3D Rocket 4.0 19:46:43 10° W 19:52:14 89° S 20:00:06 10° E
CZ-4B DEB 2.8 19:52:30 10° SSE 19:55:49 86° E 19:59:08 10° N
H-2A R/B 3.7 19:54:06 10° SE 19:57:28 29° ENE 20:00:47 10° NNE
Cosmos 1328 Rocket 4.0 19:54:52 10° NNE 19:59:04 42° E 20:03:13 10° SSE
Hubble Space Telescope 1.2 19:55:55 10° W 20:00:00 63° NNW 20:04:07 10° ENE
Cosmos 2266 Rocket 4.4 19:54:37 10° SSE 20:00:34 44° E 20:06:25 10° NNE
XTE 4.1 19:58:32 10° W 20:01:21 33° SSW 20:03:27 15° SE
Cosmos 2221 4.1 19:58:04 10° NNW 20:02:01 37° W 20:05:59 10° SSW
Ariane H10+ 3.8 20:02:36 10° SSW 20:05:26 18° SSE 20:08:57 14° ESE
CZ-2D R/B 3.4 20:04:26 10° SSE 20:08:14 57° ENE 20:12:01 10° N
Cosmos 1500 Rocket 3.9 20:09:47 10° SSW 20:14:06 70° W 20:18:29 10° N
Cosmos 2058 4.2 20:12:51 18° ESE 20:14:09 21° E 20:17:16 10° NE
Cosmos 2151 3.3 20:12:00 10° SSE 20:15:58 43° E 20:19:57 10° NNE
Cosmos 1437 2.8 20:15:05 10° S 20:18:17 55° E 20:21:29 10° NNE
Cosmos 1553 Rocket 4.0 20:12:40 10° N 20:19:00 76° E 20:25:12 10° S
Delta 142 4.3 20:15:07 10° W 20:19:04 40° SSW 20:22:00 19° SE
Cosmos 1437 Rocket 3.1 20:16:17 10° N 20:19:58 43° E 20:22:07 22° SE
Cosmos 405 3.9 20:20:26 10° NNE 20:23:38 30° E 20:24:29 27° ESE
Delta 128 4.0 20:24:51 10° WNW 20:29:50 55° SSW 20:32:07 27° SE
Cosmos 1939 Rocket 4.2 20:30:28 21° E 20:30:45 21° ENE 20:33:44 10° NNE
COSMOS 2428 4.3 20:27:28 10° NNE 20:31:06 17° ENE 20:32:29 16° E
Cosmos 1680 Rocket 4.2 20:28:34 10° N 20:33:24 36° ENE 20:35:19 27° ESE
Cosmos 1898 Rocket 3.5 20:28:51 10° S 20:33:52 55° ESE 20:38:55 10° NNE
GPS 2-04 Rocket1 4.0 20:30:30 10° WNW 20:34:30 35° SW 20:36:26 23° SSE
ALOS 2.6 20:30:53 10° S 20:35:28 67° W 20:40:06 10° NNW
Cosmos 923 Rocket 4.0 20:34:15 10° N 20:39:22 59° ENE 20:41:46 30° SE
Cosmos 773 Rocket 3.9 20:36:04 10° NNW 20:41:18 85° ENE 20:44:24 25° SSE
Palapa 6 Rocket 4.2 20:34:49 10° W 20:41:40 89° S 20:46:38 25° E
ERBS 4.2 20:40:31 10° WSW 20:43:43 33° NW 20:46:55 10° NNE
Cosmos 1328 3.7 20:42:10 18° S 20:45:02 84° W 20:48:59 10° N
Sich 1 3.9 20:45:21 31° E 20:45:21 31° E 20:49:01 10° NNE
Aureole 3 4.4 20:38:02 10° S 20:45:07 83° E 20:50:51 10° N
FENGYUN 3A 4.3 20:43:46 10° S 20:48:58 55° W 20:54:16 10° NNW
Cosmos 2150 Rocket 4.0 20:45:08 10° SSW 20:50:32 88° ESE 20:56:01 10° NNE
Star 48B 4.3 20:50:15 10° WSW 20:52:39 81° S 20:53:08 63° E
Nadezhda 2 Rocket 4.4 20:46:44 10° S 20:52:53 86° E 20:59:00 10° N
Cosmos 1633 Rocket 3.7 20:53:42 36° ENE 20:53:42 36° ENE 20:57:14 10° NNE
NOSS 3-1 (A) 4.5 20:49:09 10° SW 20:54:33 44° WNW 21:00:20 10° N
deb Chang Zheng 4 4.1 20:52:12 10° N 20:56:28 59° WNW 21:00:45 10° SSW
Cosmos 1151 Rocket 3.0 20:52:49 10° N 20:57:10 83° W 20:58:36 42° S
Cosmos 2082 3.9 20:57:16 40° SE 20:58:29 47° ESE 21:03:56 10° NNE
SL-14 R/B 3.4 21:00:38 56° ENE 21:00:38 56° ENE 21:04:09 10° NNE
ERS-1 Rocket 2.9 20:59:36 39° SSE 21:01:32 89° WSW 21:06:35 10° NNW
Cosmos 2322 Rocket 4.1 20:59:53 10° NW 21:04:17 24° WSW 21:08:42 10° SSW
Envisat 3.0 21:08:57 57° ESE 21:09:33 62° ENE 21:14:33 10° N
Cosmos 2322 3.7 21:04:02 10° NNW 21:09:44 82° WSW 21:11:33 45° S
Cosmos 1908 4.5 21:06:51 10° NNW 21:10:31 39° W 21:11:48 29° SW
Cosmos 1805 Rocket 4.0 21:09:05 32° SSW 21:11:01 62° W 21:15:24 10° N
Cosmos 2360 Rocket 2.2 21:05:38 10° NNW 21:11:17 76° WSW 21:13:07 44° S
Cosmos 220 Rocket 4.1 21:12:20 46° SSW 21:13:31 73° WNW 21:17:55 10° N
ATLAS 2AS CENTAUR R/B 2.7 21:09:00 10° SSW 21:16:02 83° ESE 21:23:48 10° NNE
SL-16 R/B 4.4 21:14:19 10° WNW 21:18:10 19° W 21:22:03 10° SW
Cosmos 304 Rocket 4.2 21:14:57 10° NNW 21:19:39 57° WSW 21:20:32 48° SW
Cosmos 1300 4.1 21:18:46 10° N 21:20:58 32° NNE 21:20:58 32° NNE
Cosmos 1937 Rocket 4.1 21:23:46 18° SSW 21:27:32 55° WNW 21:32:38 10° N
H-2A R/B 2.5 21:27:47 59° WSW 21:27:57 59° WSW 21:32:24 10° NNW
Cosmos 2227 Rocket 2.2 21:28:00 40° SSW 21:30:07 78° WNW 21:35:47 10° NNE
Cosmos 990 Rocket 4.0 21:32:32 66° WSW 21:33:05 73° WNW 21:38:12 10° N
MetOp-A 4.2 21:34:27 62° NE 21:34:27 62° NE 21:39:15 10° N
Sakura Rocket 4.2 21:30:40 10° WNW 21:34:45 34° NNW 21:34:46 34° N
Meteor 1-27 4.1 21:30:20 10° N 21:35:51 83° NE 21:35:51 83° NE
SPOT 5 3.1 21:37:46 60° NNW 21:37:46 60° NNW 21:41:39 10° NNW
Centaur D-1A AC-32 2.9 21:28:36 10° WSW 21:36:34 57° SW 21:36:34 57° SW
Cosmos 1707 Rocket 4.4 21:36:34 10° N 21:39:48 47° NNW 21:39:48 47° NNW
Hubble Space Telescope 2.5 21:37:52 10° WNW 21:41:11 31° NNW 21:41:11 31° NNW
Cosmos 1726 4.3 21:41:44 10° N 21:43:18 24° N 21:43:18 24° N
ARGOS 4.1 21:49:18 37° NNE 21:49:18 37° NNE 21:52:54 10° N
CZ-4B R/B 4.2 21:49:05 10° N 21:54:05 50° WNW 21:54:20 49° W
Cosmos 2297 Rocket 2.5 21:56:58 63° NW 21:56:58 63° NW 22:02:09 10° N
Cosmos 2333 Rocket 3.4 21:58:10 10° N 22:01:46 33° NNE 22:01:46 33° NNE
Terra 4.3 22:11:01 14° NNE 22:11:01 14° NNE 22:11:52 10° NNE
Cosmos 2219 Rocket 3.1 22:04:35 10° NNW 22:08:18 43° N 22:08:18 43° N
H-2A R/B 3.9 22:17:20 24° NNE 22:17:20 24° NNE 22:19:41 10° N
COSMOS 2428 3.8 22:10:05 10° NW 22:14:31 39° W 22:14:31 39° W
Cosmos 2237 Rocket 3.8 22:41:00 10° NNW 22:43:47 30° NNW 22:43:47 30° NNW
ATLAS 3B R/B 4.2 23:19:12 10° NNW 23:22:25 30° NNW 23:22:25 30° NNW
